Climatologie pour Saint-Brevin les Pins
Jour • Résumé pour avril 16, 2017 Système :  Métrique    Anglais   Mixte
« - 1 jour
+ 1 jour »
Jour Semaine Mois Année Personnalisé
  Maximum : Minimum : Moyenne :
Température sous abri : 15.8 °C 7.8 °C 11.9 °C
Point de rosée : 9.8 °C 6.4 °C 8.2 °C
Humidité : 95 % 58 % 79 %
Vitesse du vent : 19.3 km/h 0.0 km/h 4.4 km/h
Rafale : 24.1 km/h - -
Direction :- - WSW
Pression : 1027.0 hPa 1024.6 hPa -
Précipitations : 0.0 mm    
Historical Graphs
 
 
Tableau de données pour avril 16, 2017
Heure Tempé Pt rosée Pression Vent Vitesse Rafale Humidité Taux pluie (/hr) Soleil
00:00 10.9 °C 9.5 °C 1025.3 hPa Calm     91 % 0.0 mm 0 W/m2
00:05 10.9 °C 9.5 °C 1025.3 hPa Calm     91 % 0.0 mm 0 W/m2
00:10 10.9 °C 9.5 °C 1025.3 hPa Calm     91 % 0.0 mm 0 W/m2
00:15 10.8 °C 9.4 °C 1025.3 hPa NNE 1.6 km/h 1.6 km/h 91 % 0.0 mm 0 W/m2
00:20 10.9 °C 9.6 °C 1025.3 hPa Calm   4.8 km/h 92 % 0.0 mm 0 W/m2
00:25 10.9 °C 9.6 °C 1025.3 hPa Calm   4.8 km/h 92 % 0.0 mm 0 W/m2
00:30 10.9 °C 9.6 °C 1025.3 hPa NW 1.6 km/h 9.7 km/h 92 % 0.0 mm 0 W/m2
00:35 10.9 °C 9.5 °C 1025.3 hPa NNW 1.6 km/h 9.7 km/h 91 % 0.0 mm 0 W/m2
00:40 10.9 °C 9.5 °C 1025.3 hPa Calm   8.0 km/h 91 % 0.0 mm 0 W/m2
00:45 11.0 °C 9.6 °C 1025.3 hPa Calm   8.0 km/h 91 % 0.0 mm 0 W/m2
00:50 11.1 °C 9.5 °C 1025.6 hPa NW 4.8 km/h 6.4 km/h 90 % 0.0 mm 0 W/m2
00:55 11.1 °C 9.5 °C 1025.3 hPa Calm   4.8 km/h 90 % 0.0 mm 0 W/m2
01:00 11.1 °C 9.5 °C 1025.3 hPa NW 3.2 km/h 8.0 km/h 90 % 0.0 mm 0 W/m2
01:05 11.0 °C 9.6 °C 1025.6 hPa NNW 3.2 km/h 8.0 km/h 91 % 0.0 mm 0 W/m2
01:10 11.1 °C 9.5 °C 1025.3 hPa Calm   6.4 km/h 90 % 0.0 mm 0 W/m2
01:15 10.9 °C 9.4 °C 1025.3 hPa Calm   4.8 km/h 90 % 0.0 mm 0 W/m2
01:20 10.8 °C 9.4 °C 1025.6 hPa NNW 6.4 km/h 6.4 km/h 91 % 0.0 mm 0 W/m2
01:25 10.8 °C 9.4 °C 1025.6 hPa Calm   6.4 km/h 91 % 0.0 mm 0 W/m2
01:30 10.7 °C 9.5 °C 1025.6 hPa Calm   6.4 km/h 92 % 0.0 mm 0 W/m2
01:35 10.8 °C 9.5 °C 1025.6 hPa Calm   4.8 km/h 92 % 0.0 mm 0 W/m2
01:40 10.8 °C 9.5 °C 1025.6 hPa Calm   3.2 km/h 92 % 0.0 mm 0 W/m2
01:45 10.8 °C 9.5 °C 1025.6 hPa Calm   3.2 km/h 92 % 0.0 mm 0 W/m2
01:50 10.8 °C 9.5 °C 1025.6 hPa Calm   3.2 km/h 92 % 0.0 mm 0 W/m2
01:55 10.7 °C 9.5 °C 1025.6 hPa Calm   1.6 km/h 92 % 0.0 mm 0 W/m2
02:00 10.7 °C 9.5 °C 1025.6 hPa Calm   1.6 km/h 92 % 0.0 mm 0 W/m2
02:05 10.8 °C 9.7 °C 1025.6 hPa Calm   1.6 km/h 93 % 0.0 mm 0 W/m2
02:10 10.8 °C 9.7 °C 1025.6 hPa WNW 1.6 km/h 3.2 km/h 93 % 0.0 mm 0 W/m2
02:15 10.8 °C 9.7 °C 1026.0 hPa Calm   3.2 km/h 93 % 0.0 mm 0 W/m2
02:20 10.7 °C 9.6 °C 1026.0 hPa Calm   3.2 km/h 93 % 0.0 mm 0 W/m2
02:25 10.7 °C 9.6 °C 1026.0 hPa Calm   1.6 km/h 93 % 0.0 mm 0 W/m2
02:30 10.7 °C 9.6 °C 1026.0 hPa Calm   1.6 km/h 93 % 0.0 mm 0 W/m2
02:35 10.7 °C 9.6 °C 1026.0 hPa Calm   4.8 km/h 93 % 0.0 mm 0 W/m2
02:40 10.7 °C 9.6 °C 1026.0 hPa Calm   4.8 km/h 93 % 0.0 mm 0 W/m2
02:45 10.7 °C 9.6 °C 1026.0 hPa Calm   4.8 km/h 93 % 0.0 mm 0 W/m2
02:50 10.8 °C 9.7 °C 1026.0 hPa NNE 1.6 km/h 8.0 km/h 93 % 0.0 mm 0 W/m2
02:55 10.8 °C 9.7 °C 1026.0 hPa Calm   8.0 km/h 93 % 0.0 mm 0 W/m2
03:00 10.8 °C 9.7 °C 1026.0 hPa Calm   4.8 km/h 93 % 0.0 mm 0 W/m2
03:05 10.8 °C 9.7 °C 1026.0 hPa Calm   4.8 km/h 93 % 0.0 mm 0 W/m2
03:10 10.8 °C 9.7 °C 1026.0 hPa Calm   4.8 km/h 93 % 0.0 mm 0 W/m2
03:15 10.7 °C 9.6 °C 1026.0 hPa Calm   4.8 km/h 93 % 0.0 mm 0 W/m2
03:20 10.7 °C 9.6 °C 1026.0 hPa Calm   8.0 km/h 93 % 0.0 mm 0 W/m2
03:25 10.7 °C 9.6 °C 1026.0 hPa Calm   8.0 km/h 93 % 0.0 mm 0 W/m2
03:30 10.8 °C 9.5 °C 1026.0 hPa Calm   6.4 km/h 92 % 0.0 mm 0 W/m2
03:35 10.7 °C 9.5 °C 1026.0 hPa NW 1.6 km/h 6.4 km/h 92 % 0.0 mm 0 W/m2
03:40 10.7 °C 9.4 °C 1026.0 hPa Calm   6.4 km/h 92 % 0.0 mm 0 W/m2
03:45 10.7 °C 9.4 °C 1026.0 hPa Calm   6.4 km/h 92 % 0.0 mm 0 W/m2
03:50 10.7 °C 9.4 °C 1026.0 hPa Calm   3.2 km/h 92 % 0.0 mm 0 W/m2
04:00 10.6 °C 9.3 °C 1026.0 hPa Calm   1.6 km/h 92 % 0.0 mm 0 W/m2
04:05 10.6 °C 9.3 °C 1026.0 hPa Calm   6.4 km/h 92 % 0.0 mm 0 W/m2
04:10 10.5 °C 9.3 °C 1026.0 hPa Calm   6.4 km/h 92 % 0.0 mm 0 W/m2
04:15 10.4 °C 9.2 °C 1026.0 hPa North 1.6 km/h 6.4 km/h 92 % 0.0 mm 0 W/m2
04:20 10.4 °C 9.1 °C 1026.0 hPa Calm   6.4 km/h 92 % 0.0 mm 0 W/m2
04:25 10.4 °C 9.2 °C 1026.0 hPa North 4.8 km/h 6.4 km/h 92 % 0.0 mm 0 W/m2
04:30 10.4 °C 9.1 °C 1026.0 hPa Calm   8.0 km/h 92 % 0.0 mm 0 W/m2
04:35 10.4 °C 9.0 °C 1025.6 hPa NNE 4.8 km/h 8.0 km/h 91 % 0.0 mm 0 W/m2
04:40 10.4 °C 9.0 °C 1026.0 hPa Calm   8.0 km/h 91 % 0.0 mm 0 W/m2
04:45 10.4 °C 9.0 °C 1026.0 hPa North 1.6 km/h 8.0 km/h 91 % 0.0 mm 0 W/m2
04:50 10.4 °C 8.8 °C 1026.0 hPa NNW 4.8 km/h 4.8 km/h 90 % 0.0 mm 0 W/m2
04:55 10.3 °C 8.8 °C 1025.6 hPa Calm   4.8 km/h 90 % 0.0 mm 0 W/m2
05:00 10.3 °C 8.9 °C 1025.6 hPa Calm   3.2 km/h 91 % 0.0 mm 0 W/m2
05:05 10.3 °C 8.9 °C 1025.6 hPa NNW 3.2 km/h 3.2 km/h 91 % 0.0 mm 0 W/m2
05:10 10.3 °C 8.7 °C 1025.6 hPa Calm   3.2 km/h 90 % 0.0 mm 0 W/m2
05:20 10.3 °C 8.7 °C 1025.6 hPa Calm   3.2 km/h 90 % 0.0 mm 0 W/m2
05:25 10.2 °C 8.8 °C 1025.6 hPa Calm   3.2 km/h 91 % 0.0 mm 0 W/m2
05:30 10.1 °C 8.7 °C 1025.6 hPa Calm   3.2 km/h 91 % 0.0 mm 0 W/m2
05:35 10.1 °C 8.7 °C 1025.6 hPa Calm     91 % 0.0 mm 0 W/m2
05:40 10.0 °C 8.6 °C 1025.6 hPa NNW 1.6 km/h 1.6 km/h 91 % 0.0 mm 0 W/m2
05:45 9.9 °C 8.7 °C 1025.6 hPa Calm   6.4 km/h 92 % 0.0 mm 0 W/m2
05:50 10.0 °C 8.6 °C 1025.6 hPa Calm   6.4 km/h 91 % 0.0 mm 0 W/m2
05:55 10.0 °C 8.6 °C 1025.6 hPa Calm   6.4 km/h 91 % 0.0 mm 0 W/m2
06:00 10.1 °C 8.7 °C 1025.6 hPa Calm   6.4 km/h 91 % 0.0 mm 0 W/m2
06:05 10.1 °C 8.5 °C 1025.6 hPa Calm   6.4 km/h 90 % 0.0 mm 0 W/m2
06:10 10.0 °C 8.4 °C 1025.6 hPa Calm   8.0 km/h 90 % 0.0 mm 0 W/m2
06:15 10.0 °C 8.4 °C 1025.6 hPa North 1.6 km/h 8.0 km/h 90 % 0.0 mm 0 W/m2
06:20 10.1 °C 8.2 °C 1025.6 hPa Calm   8.0 km/h 88 % 0.0 mm 0 W/m2
06:25 10.1 °C 8.2 °C 1025.6 hPa North 3.2 km/h 8.0 km/h 88 % 0.0 mm 0 W/m2
06:30 10.1 °C 8.2 °C 1025.6 hPa North 1.6 km/h 8.0 km/h 88 % 0.0 mm 0 W/m2
06:35 10.0 °C 8.1 °C 1025.6 hPa Calm   8.0 km/h 88 % 0.0 mm 0 W/m2
06:40 9.9 °C 8.0 °C 1025.6 hPa Calm   3.2 km/h 88 % 0.0 mm 0 W/m2
06:45 9.9 °C 8.2 °C 1025.6 hPa Calm   4.8 km/h 89 % 0.0 mm 0 W/m2
06:50 9.9 °C 8.2 °C 1025.6 hPa Calm   4.8 km/h 89 % 0.0 mm 0 W/m2
06:55 9.8 °C 8.1 °C 1025.6 hPa Calm   3.2 km/h 89 % 0.0 mm 0 W/m2
07:00 9.8 °C 8.1 °C 1025.6 hPa Calm   1.6 km/h 89 % 0.0 mm 0 W/m2
07:05 9.8 °C 8.2 °C 1026.0 hPa Calm   1.6 km/h 90 % 0.0 mm 0 W/m2
07:10 9.7 °C 8.1 °C 1026.0 hPa Calm   1.6 km/h 90 % 0.0 mm 0 W/m2
07:15 9.7 °C 8.1 °C 1026.0 hPa Calm   1.6 km/h 90 % 0.0 mm 0 W/m2
07:20 9.7 °C 8.1 °C 1026.0 hPa Calm   3.2 km/h 90 % 0.0 mm 0 W/m2
07:25 9.7 °C 8.2 °C 1026.0 hPa Calm   3.2 km/h 90 % 0.0 mm 5 W/m2
07:30 9.6 °C 8.1 °C 1026.0 hPa Calm   3.2 km/h 90 % 0.0 mm 7 W/m2
07:35 9.7 °C 7.9 °C 1026.0 hPa North 3.2 km/h 4.8 km/h 89 % 0.0 mm 11 W/m2
07:40 9.7 °C 8.2 °C 1026.0 hPa Calm   4.8 km/h 90 % 0.0 mm 12 W/m2
07:45 9.6 °C 7.9 °C 1026.0 hPa North 3.2 km/h 6.4 km/h 89 % 0.0 mm 16 W/m2
07:50 9.7 °C 7.8 °C 1026.0 hPa NNE 4.8 km/h 9.7 km/h 88 % 0.0 mm 23 W/m2
07:55 9.8 °C 7.9 °C 1026.0 hPa NNE 1.6 km/h 9.7 km/h 88 % 0.0 mm 26 W/m2
08:00 9.8 °C 7.7 °C 1026.0 hPa NNE 1.6 km/h 8.0 km/h 87 % 0.0 mm 33 W/m2
08:05 9.8 °C 7.8 °C 1026.0 hPa NNE 4.8 km/h 9.7 km/h 87 % 0.0 mm 37 W/m2
08:10 9.8 °C 7.6 °C 1026.3 hPa NNE 4.8 km/h 12.9 km/h 86 % 0.0 mm 49 W/m2
08:15 10.0 °C 7.6 °C 1026.3 hPa North 1.6 km/h 14.5 km/h 85 % 0.0 mm 53 W/m2
08:20 10.2 °C 7.8 °C 1026.3 hPa Calm   14.5 km/h 85 % 0.0 mm 65 W/m2
08:25 10.2 °C 7.8 °C 1026.6 hPa NNE 3.2 km/h 11.3 km/h 85 % 0.0 mm 60 W/m2
08:35 10.4 °C 7.8 °C 1026.6 hPa North 1.6 km/h 12.9 km/h 84 % 0.0 mm 79 W/m2
08:40 10.4 °C 7.9 °C 1026.6 hPa NNE 8.0 km/h 12.9 km/h 84 % 0.0 mm 100 W/m2
08:45 10.5 °C 7.7 °C 1026.6 hPa North 1.6 km/h 11.3 km/h 83 % 0.0 mm 128 W/m2
08:50 10.6 °C 7.7 °C 1026.6 hPa North 6.4 km/h 11.3 km/h 82 % 0.0 mm 107 W/m2
08:55 10.6 °C 7.5 °C 1026.6 hPa NE 3.2 km/h 14.5 km/h 81 % 0.0 mm 121 W/m2
09:00 10.6 °C 7.5 °C 1026.6 hPa NE 1.6 km/h 14.5 km/h 81 % 0.0 mm 137 W/m2
09:05 10.8 °C 7.9 °C 1026.6 hPa NNE 3.2 km/h 11.3 km/h 82 % 0.0 mm 163 W/m2
09:10 10.9 °C 7.8 °C 1026.6 hPa NE 3.2 km/h 9.7 km/h 81 % 0.0 mm 176 W/m2
09:15 11.0 °C 7.3 °C 1026.6 hPa NE 12.9 km/h 12.9 km/h 78 % 0.0 mm 174 W/m2
09:20 11.0 °C 6.9 °C 1027.0 hPa NNE 4.8 km/h 12.9 km/h 76 % 0.0 mm 207 W/m2
09:25 11.1 °C 7.0 °C 1027.0 hPa NNE 6.4 km/h 12.9 km/h 76 % 0.0 mm 174 W/m2
09:30 11.2 °C 7.3 °C 1027.0 hPa NNE 1.6 km/h 12.9 km/h 77 % 0.0 mm 199 W/m2
09:35 11.3 °C 7.1 °C 1027.0 hPa NE 1.6 km/h 11.3 km/h 75 % 0.0 mm 229 W/m2
09:40 11.4 °C 6.9 °C 1027.0 hPa ENE 1.6 km/h 11.3 km/h 74 % 0.0 mm 225 W/m2
09:45 11.6 °C 7.1 °C 1027.0 hPa North 3.2 km/h 12.9 km/h 74 % 0.0 mm 244 W/m2
09:50 11.6 °C 6.9 °C 1027.0 hPa NE 11.3 km/h 12.9 km/h 73 % 0.0 mm 223 W/m2
09:55 11.5 °C 6.8 °C 1027.0 hPa NNW 8.0 km/h 12.9 km/h 73 % 0.0 mm 276 W/m2
10:00 11.7 °C 7.0 °C 1027.0 hPa North 3.2 km/h 12.9 km/h 73 % 0.0 mm 232 W/m2
10:05 11.9 °C 7.8 °C 1027.0 hPa North 3.2 km/h 11.3 km/h 76 % 0.0 mm 359 W/m2
10:10 11.9 °C 7.1 °C 1027.0 hPa NW 1.6 km/h 12.9 km/h 72 % 0.0 mm 584 W/m2
10:15 12.2 °C 7.1 °C 1027.0 hPa NNW 1.6 km/h 12.9 km/h 71 % 0.0 mm 513 W/m2
10:20 12.4 °C 6.9 °C 1027.0 hPa North 8.0 km/h 14.5 km/h 69 % 0.0 mm 494 W/m2
10:25 12.4 °C 7.1 °C 1027.0 hPa North 6.4 km/h 14.5 km/h 70 % 0.0 mm 411 W/m2
10:30 12.4 °C 6.9 °C 1027.0 hPa NW 3.2 km/h 12.9 km/h 69 % 0.0 mm 339 W/m2
10:40 12.8 °C 7.9 °C 1027.0 hPa NE 1.6 km/h 9.7 km/h 72 % 0.0 mm 515 W/m2
10:45 13.2 °C 7.8 °C 1027.0 hPa North 1.6 km/h 12.9 km/h 70 % 0.0 mm 559 W/m2
10:50 13.3 °C 8.0 °C 1027.0 hPa NE 6.4 km/h 12.9 km/h 70 % 0.0 mm 557 W/m2
10:55 13.2 °C 7.4 °C 1027.0 hPa Calm   14.5 km/h 68 % 0.0 mm 578 W/m2
11:00 13.0 °C 6.8 °C 1027.0 hPa Calm   14.5 km/h 66 % 0.0 mm 582 W/m2
11:05 13.1 °C 6.4 °C 1027.0 hPa NNW 1.6 km/h 9.7 km/h 64 % 0.0 mm 594 W/m2
11:10 13.1 °C 7.1 °C 1027.0 hPa NNE 8.0 km/h 11.3 km/h 67 % 0.0 mm 601 W/m2
11:15 13.9 °C 8.1 °C 1027.0 hPa NE 8.0 km/h 12.9 km/h 68 % 0.0 mm 624 W/m2
11:20 13.8 °C 7.4 °C 1027.0 hPa NNE 8.0 km/h 12.9 km/h 65 % 0.0 mm 631 W/m2
11:25 13.7 °C 7.5 °C 1027.0 hPa WNW 4.8 km/h 14.5 km/h 66 % 0.0 mm 647 W/m2
11:30 14.3 °C 7.8 °C 1027.0 hPa WNW 9.7 km/h 14.5 km/h 65 % 0.0 mm 650 W/m2
11:35 14.1 °C 6.4 °C 1027.0 hPa North 6.4 km/h 14.5 km/h 60 % 0.0 mm 668 W/m2
11:40 14.4 °C 8.1 °C 1027.0 hPa North 1.6 km/h 12.9 km/h 66 % 0.0 mm 691 W/m2
11:45 14.1 °C 7.8 °C 1027.0 hPa NNW 4.8 km/h 11.3 km/h 66 % 0.0 mm 118 W/m2
11:50 13.7 °C 6.8 °C 1027.0 hPa NNE 3.2 km/h 11.3 km/h 63 % 0.0 mm 132 W/m2
11:55 14.2 °C 7.9 °C 1027.0 hPa ENE 6.4 km/h 12.9 km/h 66 % 0.0 mm 782 W/m2
12:05 14.5 °C 7.3 °C 1027.0 hPa NNE 3.2 km/h 12.9 km/h 62 % 0.0 mm 888 W/m2
12:10 14.8 °C 6.8 °C 1027.0 hPa Calm   14.5 km/h 59 % 0.0 mm 533 W/m2
12:15 14.8 °C 7.1 °C 1027.0 hPa NNE 6.4 km/h 14.5 km/h 60 % 0.0 mm 923 W/m2
12:20 14.7 °C 7.5 °C 1027.0 hPa NNW 6.4 km/h 11.3 km/h 62 % 0.0 mm 359 W/m2
12:25 14.1 °C 6.9 °C 1027.0 hPa NW 6.4 km/h 12.9 km/h 62 % 0.0 mm 260 W/m2
12:30 13.7 °C 7.4 °C 1027.0 hPa WNW 4.8 km/h 12.9 km/h 66 % 0.0 mm 889 W/m2
12:35 14.8 °C 7.6 °C 1027.0 hPa NNE 4.8 km/h 9.7 km/h 62 % 0.0 mm 287 W/m2
12:40 14.6 °C 7.4 °C 1027.0 hPa WNW 4.8 km/h 8.0 km/h 62 % 0.0 mm 933 W/m2
12:45 14.6 °C 7.1 °C 1026.6 hPa North 1.6 km/h 14.5 km/h 61 % 0.0 mm 933 W/m2
12:55 14.5 °C 7.3 °C 1026.6 hPa West 6.4 km/h 17.7 km/h 62 % 0.0 mm 316 W/m2
13:00 14.6 °C 7.9 °C 1026.6 hPa SW 8.0 km/h 17.7 km/h 64 % 0.0 mm 928 W/m2
13:05 14.9 °C 7.7 °C 1026.6 hPa WSW 11.3 km/h 14.5 km/h 62 % 0.0 mm 879 W/m2
13:10 14.4 °C 7.5 °C 1026.6 hPa West 6.4 km/h 11.3 km/h 63 % 0.0 mm 882 W/m2
13:15 14.9 °C 7.7 °C 1026.6 hPa West 3.2 km/h 11.3 km/h 62 % 0.0 mm 879 W/m2
13:20 15.1 °C 8.3 °C 1026.6 hPa WSW 11.3 km/h 14.5 km/h 64 % 0.0 mm 905 W/m2
13:30 14.8 °C 8.0 °C 1026.6 hPa SW 11.3 km/h 20.9 km/h 64 % 0.0 mm 861 W/m2
13:35 14.8 °C 8.3 °C 1026.6 hPa West 8.0 km/h 17.7 km/h 65 % 0.0 mm 826 W/m2
13:40 14.8 °C 8.8 °C 1026.6 hPa WSW 4.8 km/h 17.7 km/h 67 % 0.0 mm 824 W/m2
13:45 15.0 °C 8.9 °C 1026.6 hPa West 12.9 km/h 17.7 km/h 67 % 0.0 mm 824 W/m2
13:50 15.7 °C 9.8 °C 1026.3 hPa West 3.2 km/h 16.1 km/h 68 % 0.0 mm 817 W/m2
13:55 15.2 °C 8.6 °C 1026.3 hPa West 11.3 km/h 17.7 km/h 65 % 0.0 mm 817 W/m2
14:05 14.5 °C 7.8 °C 1026.3 hPa WSW 12.9 km/h 19.3 km/h 64 % 0.0 mm 810 W/m2
14:10 15.0 °C 8.0 °C 1026.3 hPa WNW 12.9 km/h 19.3 km/h 63 % 0.0 mm 807 W/m2
14:15 14.9 °C 8.4 °C 1026.3 hPa WSW 9.7 km/h 17.7 km/h 65 % 0.0 mm 812 W/m2
14:20 15.1 °C 7.8 °C 1026.0 hPa West 12.9 km/h 16.1 km/h 62 % 0.0 mm 805 W/m2
14:25 14.9 °C 7.2 °C 1026.0 hPa SW 1.6 km/h 14.5 km/h 60 % 0.0 mm 807 W/m2
14:30 15.1 °C 6.9 °C 1026.0 hPa West 6.4 km/h 17.7 km/h 58 % 0.0 mm 807 W/m2
14:35 15.1 °C 6.9 °C 1026.0 hPa WNW 12.9 km/h 17.7 km/h 58 % 0.0 mm 805 W/m2
14:40 15.1 °C 7.1 °C 1026.0 hPa West 11.3 km/h 16.1 km/h 59 % 0.0 mm 795 W/m2
14:45 15.3 °C 7.8 °C 1026.0 hPa West 4.8 km/h 19.3 km/h 61 % 0.0 mm 786 W/m2
14:50 15.8 °C 8.3 °C 1026.0 hPa WSW 14.5 km/h 19.3 km/h 61 % 0.0 mm 784 W/m2
14:55 15.2 °C 8.5 °C 1026.0 hPa West 8.0 km/h 19.3 km/h 64 % 0.0 mm 777 W/m2
15:00 15.4 °C 8.7 °C 1026.0 hPa West 6.4 km/h 19.3 km/h 64 % 0.0 mm 779 W/m2
15:05 15.0 °C 7.5 °C 1026.0 hPa West 12.9 km/h 17.7 km/h 61 % 0.0 mm 770 W/m2
15:10 15.3 °C 8.3 °C 1026.0 hPa West 4.8 km/h 17.7 km/h 63 % 0.0 mm 763 W/m2
15:15 14.9 °C 8.0 °C 1026.0 hPa WSW 11.3 km/h 20.9 km/h 63 % 0.0 mm 759 W/m2
15:20 14.9 °C 8.4 °C 1026.0 hPa WSW 16.1 km/h 20.9 km/h 65 % 0.0 mm 752 W/m2
15:25 14.7 °C 7.7 °C 1026.0 hPa West 19.3 km/h 20.9 km/h 63 % 0.0 mm 747 W/m2
15:30 14.8 °C 8.8 °C 1026.0 hPa NW 6.4 km/h 22.5 km/h 67 % 0.0 mm 737 W/m2
15:35 14.8 °C 7.9 °C 1026.0 hPa WNW 6.4 km/h 22.5 km/h 63 % 0.0 mm 737 W/m2
15:40 15.2 °C 9.1 °C 1025.6 hPa WNW 14.5 km/h 20.9 km/h 67 % 0.0 mm 724 W/m2
15:45 14.9 °C 8.4 °C 1025.6 hPa WNW 8.0 km/h 19.3 km/h 65 % 0.0 mm 715 W/m2
15:50 15.2 °C 9.1 °C 1026.0 hPa WSW 14.5 km/h 24.1 km/h 67 % 0.0 mm 707 W/m2
15:55 15.2 °C 8.6 °C 1025.6 hPa SW 8.0 km/h 24.1 km/h 65 % 0.0 mm 707 W/m2
16:00 14.7 °C 8.7 °C 1025.6 hPa West 12.9 km/h 22.5 km/h 67 % 0.0 mm 701 W/m2
16:05 15.0 °C 8.2 °C 1025.6 hPa WSW 9.7 km/h 22.5 km/h 64 % 0.0 mm 689 W/m2
16:10 15.2 °C 8.5 °C 1025.6 hPa NW 6.4 km/h 22.5 km/h 64 % 0.0 mm 682 W/m2
16:15 15.2 °C 8.5 °C 1025.6 hPa WNW 4.8 km/h 19.3 km/h 64 % 0.0 mm 666 W/m2
16:20 15.4 °C 8.4 °C 1025.6 hPa West 8.0 km/h 20.9 km/h 63 % 0.0 mm 663 W/m2
16:25 14.9 °C 8.8 °C 1025.6 hPa West 6.4 km/h 22.5 km/h 67 % 0.0 mm 670 W/m2
16:30 14.8 °C 8.0 °C 1025.6 hPa West 14.5 km/h 24.1 km/h 64 % 0.0 mm 638 W/m2
16:35 14.6 °C 8.5 °C 1025.3 hPa West 8.0 km/h 24.1 km/h 67 % 0.0 mm 621 W/m2
16:40 14.7 °C 8.2 °C 1025.3 hPa WNW 11.3 km/h 24.1 km/h 65 % 0.0 mm 606 W/m2
16:45 14.7 °C 8.4 °C 1025.3 hPa West 9.7 km/h 19.3 km/h 66 % 0.0 mm 601 W/m2
16:50 15.1 °C 9.0 °C 1025.3 hPa WNW 14.5 km/h 19.3 km/h 67 % 0.0 mm 587 W/m2
16:55 14.9 °C 8.2 °C 1025.3 hPa West 16.1 km/h 17.7 km/h 64 % 0.0 mm 571 W/m2
17:00 14.9 °C 8.6 °C 1025.3 hPa WSW 12.9 km/h 17.7 km/h 66 % 0.0 mm 559 W/m2
17:05 14.7 °C 7.9 °C 1025.3 hPa WNW 14.5 km/h 20.9 km/h 64 % 0.0 mm 543 W/m2
17:10 14.7 °C 8.2 °C 1025.3 hPa West 17.7 km/h 20.9 km/h 65 % 0.0 mm 526 W/m2
17:15 14.7 °C 8.9 °C 1025.3 hPa West 19.3 km/h 24.1 km/h 68 % 0.0 mm 550 W/m2
17:20 14.7 °C 8.2 °C 1025.3 hPa West 4.8 km/h 24.1 km/h 65 % 0.0 mm 527 W/m2
17:25 14.6 °C 8.0 °C 1024.9 hPa WNW 14.5 km/h 24.1 km/h 65 % 0.0 mm 508 W/m2
17:30 14.3 °C 8.1 °C 1024.9 hPa NW 9.7 km/h 24.1 km/h 66 % 0.0 mm 499 W/m2
17:35 14.3 °C 7.6 °C 1024.9 hPa WNW 14.5 km/h 20.9 km/h 64 % 0.0 mm 480 W/m2
17:40 14.0 °C 8.0 °C 1024.9 hPa WSW 11.3 km/h 22.5 km/h 67 % 0.0 mm 462 W/m2
17:45 14.1 °C 8.0 °C 1024.9 hPa WNW 6.4 km/h 24.1 km/h 67 % 0.0 mm 425 W/m2
17:50 14.4 °C 8.2 °C 1024.9 hPa NW 4.8 km/h 24.1 km/h 66 % 0.0 mm 429 W/m2
17:55 14.2 °C 8.6 °C 1024.9 hPa West 4.8 km/h 22.5 km/h 69 % 0.0 mm 418 W/m2
18:00 14.2 °C 8.0 °C 1024.9 hPa NNW 8.0 km/h 20.9 km/h 66 % 0.0 mm 403 W/m2
18:05 14.1 °C 8.2 °C 1024.9 hPa West 6.4 km/h 20.9 km/h 68 % 0.0 mm 381 W/m2
18:10 14.1 °C 8.3 °C 1024.9 hPa WSW 12.9 km/h 20.9 km/h 68 % 0.0 mm 371 W/m2
18:15 13.9 °C 8.1 °C 1024.6 hPa West 8.0 km/h 19.3 km/h 68 % 0.0 mm 362 W/m2
18:20 14.1 °C 8.0 °C 1024.6 hPa West 4.8 km/h 17.7 km/h 67 % 0.0 mm 350 W/m2
18:25 14.2 °C 7.7 °C 1024.6 hPa NW 9.7 km/h 17.7 km/h 65 % 0.0 mm 338 W/m2
18:30 14.0 °C 7.3 °C 1024.6 hPa West 11.3 km/h 19.3 km/h 64 % 0.0 mm 327 W/m2
18:35 14.1 °C 7.6 °C 1024.6 hPa WNW 4.8 km/h 19.3 km/h 65 % 0.0 mm 308 W/m2
18:40 14.1 °C 8.1 °C 1024.6 hPa WNW 8.0 km/h 17.7 km/h 67 % 0.0 mm 297 W/m2
18:45 14.1 °C 8.2 °C 1024.6 hPa West 9.7 km/h 17.7 km/h 68 % 0.0 mm 285 W/m2
18:50 14.0 °C 8.2 °C 1024.9 hPa West 8.0 km/h 19.3 km/h 68 % 0.0 mm 267 W/m2
18:55 13.8 °C 7.8 °C 1024.6 hPa WNW 4.8 km/h 22.5 km/h 67 % 0.0 mm 250 W/m2
19:00 13.7 °C 8.1 °C 1024.6 hPa WSW 8.0 km/h 22.5 km/h 69 % 0.0 mm 239 W/m2
19:05 13.6 °C 7.8 °C 1024.6 hPa NW 9.7 km/h 19.3 km/h 68 % 0.0 mm 225 W/m2
19:10 13.5 °C 7.9 °C 1024.6 hPa WSW 8.0 km/h 19.3 km/h 69 % 0.0 mm 211 W/m2
19:15 13.4 °C 7.9 °C 1024.6 hPa WNW 8.0 km/h 14.5 km/h 69 % 0.0 mm 148 W/m2
19:20 13.2 °C 7.8 °C 1024.6 hPa SW 8.0 km/h 17.7 km/h 70 % 0.0 mm 83 W/m2
19:25 13.2 °C 8.2 °C 1024.6 hPa WNW 8.0 km/h 17.7 km/h 72 % 0.0 mm 65 W/m2
19:30 13.2 °C 8.6 °C 1024.6 hPa West 3.2 km/h 16.1 km/h 74 % 0.0 mm 63 W/m2
19:35 13.2 °C 8.5 °C 1024.6 hPa WNW 8.0 km/h 16.1 km/h 73 % 0.0 mm 58 W/m2
19:40 13.2 °C 8.6 °C 1024.6 hPa SW 6.4 km/h 16.1 km/h 74 % 0.0 mm 54 W/m2
19:45 13.1 °C 8.6 °C 1024.6 hPa West 8.0 km/h 16.1 km/h 74 % 0.0 mm 53 W/m2
19:50 13.1 °C 8.5 °C 1024.6 hPa WNW 3.2 km/h 12.9 km/h 74 % 0.0 mm 51 W/m2
19:55 13.0 °C 8.5 °C 1024.6 hPa West 9.7 km/h 16.1 km/h 74 % 0.0 mm 74 W/m2
20:00 12.9 °C 8.4 °C 1024.6 hPa West 9.7 km/h 16.1 km/h 74 % 0.0 mm 56 W/m2
20:05 12.8 °C 8.3 °C 1024.6 hPa WNW 3.2 km/h 12.9 km/h 74 % 0.0 mm 40 W/m2
20:10 12.6 °C 7.9 °C 1024.6 hPa NW 3.2 km/h 14.5 km/h 73 % 0.0 mm 39 W/m2
20:15 12.4 °C 7.9 °C 1024.6 hPa NW 6.4 km/h 16.1 km/h 74 % 0.0 mm 32 W/m2
20:25 12.2 °C 7.9 °C 1024.6 hPa West 11.3 km/h 12.9 km/h 75 % 0.0 mm 25 W/m2
20:30 12.2 °C 7.9 °C 1024.6 hPa West 3.2 km/h 12.9 km/h 75 % 0.0 mm 21 W/m2
20:35 12.0 °C 7.9 °C 1024.6 hPa WNW 4.8 km/h 12.9 km/h 76 % 0.0 mm 18 W/m2
20:40 11.8 °C 7.7 °C 1024.6 hPa WNW 11.3 km/h 12.9 km/h 76 % 0.0 mm 14 W/m2
20:45 11.7 °C 7.6 °C 1024.6 hPa WNW 11.3 km/h 12.9 km/h 76 % 0.0 mm 11 W/m2
20:50 11.6 °C 7.7 °C 1024.6 hPa West 1.6 km/h 11.3 km/h 77 % 0.0 mm 9 W/m2
20:55 11.4 °C 7.7 °C 1024.6 hPa West 4.8 km/h 11.3 km/h 78 % 0.0 mm 5 W/m2
21:00 11.2 °C 7.7 °C 1024.6 hPa WNW 8.0 km/h 11.3 km/h 79 % 0.0 mm 0 W/m2
21:05 11.0 °C 7.7 °C 1024.6 hPa WNW 6.4 km/h 9.7 km/h 80 % 0.0 mm 0 W/m2
21:10 11.0 °C 7.7 °C 1024.6 hPa WNW 4.8 km/h 11.3 km/h 80 % 0.0 mm 0 W/m2
21:15 10.9 °C 7.8 °C 1024.6 hPa WNW 6.4 km/h 11.3 km/h 81 % 0.0 mm 0 W/m2
21:20 10.8 °C 7.6 °C 1024.6 hPa NW 4.8 km/h 9.7 km/h 81 % 0.0 mm 0 W/m2
21:25 10.7 °C 7.7 °C 1024.6 hPa WNW 8.0 km/h 11.3 km/h 82 % 0.0 mm 0 W/m2
21:30 10.4 °C 7.7 °C 1024.6 hPa WNW 6.4 km/h 11.3 km/h 83 % 0.0 mm 0 W/m2
21:35 10.2 °C 7.6 °C 1024.6 hPa NNW 1.6 km/h 11.3 km/h 84 % 0.0 mm 0 W/m2
21:40 10.1 °C 7.5 °C 1024.6 hPa NNW 1.6 km/h 11.3 km/h 84 % 0.0 mm 0 W/m2
21:45 9.9 °C 7.5 °C 1024.6 hPa NNW 1.6 km/h 9.7 km/h 85 % 0.0 mm 0 W/m2
21:50 9.7 °C 7.5 °C 1024.6 hPa Calm   6.4 km/h 86 % 0.0 mm 0 W/m2
21:55 9.6 °C 7.5 °C 1024.6 hPa NW 3.2 km/h 9.7 km/h 87 % 0.0 mm 0 W/m2
22:00 9.5 °C 7.6 °C 1024.9 hPa WNW 4.8 km/h 9.7 km/h 88 % 0.0 mm 0 W/m2
22:05 9.3 °C 7.4 °C 1024.9 hPa NW 3.2 km/h 6.4 km/h 88 % 0.0 mm 0 W/m2
22:10 9.2 °C 7.4 °C 1024.9 hPa Calm   6.4 km/h 89 % 0.0 mm 0 W/m2
22:15 9.1 °C 7.3 °C 1024.9 hPa NW 1.6 km/h 4.8 km/h 89 % 0.0 mm 0 W/m2
22:20 9.1 °C 7.5 °C 1024.9 hPa Calm   6.4 km/h 90 % 0.0 mm 0 W/m2
22:25 8.8 °C 7.3 °C 1024.9 hPa Calm   6.4 km/h 90 % 0.0 mm 0 W/m2
22:30 8.7 °C 7.1 °C 1024.9 hPa NNW 1.6 km/h 4.8 km/h 90 % 0.0 mm 0 W/m2
22:35 8.6 °C 7.2 °C 1024.9 hPa WNW 1.6 km/h 6.4 km/h 91 % 0.0 mm 0 W/m2
22:40 8.4 °C 7.1 °C 1024.9 hPa NW 3.2 km/h 6.4 km/h 91 % 0.0 mm 0 W/m2
22:45 8.4 °C 7.2 °C 1024.9 hPa Calm   4.8 km/h 92 % 0.0 mm 0 W/m2
22:50 8.3 °C 7.1 °C 1024.9 hPa Calm   4.8 km/h 92 % 0.0 mm 0 W/m2
22:55 8.3 °C 7.1 °C 1024.9 hPa Calm   3.2 km/h 92 % 0.0 mm 0 W/m2
23:00 8.3 °C 7.2 °C 1024.9 hPa Calm   4.8 km/h 93 % 0.0 mm 0 W/m2
23:05 8.4 °C 7.3 °C 1024.9 hPa NW 1.6 km/h 4.8 km/h 93 % 0.0 mm 0 W/m2
23:10 8.3 °C 7.3 °C 1024.9 hPa Calm   4.8 km/h 93 % 0.0 mm 0 W/m2
23:15 8.3 °C 7.3 °C 1024.9 hPa Calm   4.8 km/h 93 % 0.0 mm 0 W/m2
23:20 8.3 °C 7.2 °C 1024.9 hPa Calm   1.6 km/h 93 % 0.0 mm 0 W/m2
23:25 8.2 °C 7.3 °C 1024.6 hPa Calm   1.6 km/h 94 % 0.0 mm 0 W/m2
23:30 8.1 °C 7.1 °C 1024.6 hPa Calm   1.6 km/h 94 % 0.0 mm 0 W/m2
23:35 7.8 °C 6.9 °C 1024.6 hPa Calm   1.6 km/h 94 % 0.0 mm 0 W/m2
23:40 8.1 °C 7.3 °C 1024.6 hPa Calm   1.6 km/h 95 % 0.0 mm 0 W/m2
23:45 8.2 °C 7.3 °C 1024.6 hPa Calm     94 % 0.0 mm 0 W/m2
23:50 8.1 °C 7.2 °C 1024.6 hPa Calm     94 % 0.0 mm 0 W/m2
23:55 8.2 °C 7.3 °C 1024.9 hPa Calm     94 % 0.0 mm 0 W/m2
Avec l'autorisation de Weather Underground - 1.75 mb